EN

Hourly Weather Tokmak

Today, 16 April, Friday

Time Temperature Precipitation Wind Pressure Humidity
00:00 -6°C° 0 mm 2 mps 480 mmHg 75%
01:00 -8°C° 0 mm 3 mps 480 mmHg 75%
02:00 -8°C° 0 mm 3 mps 479 mmHg 75%
03:00 -8°C° 0 mm 3 mps 479 mmHg 73%
04:00 -8°C° 0 mm 3 mps 479 mmHg 71%
05:00 -9°C° 0 mm 3 mps 479 mmHg 67%
06:00 -7°C° 0 mm 2 mps 480 mmHg 68%
07:00 -6°C° 0 mm 2 mps 481 mmHg 68%
08:00 -2°C° 0 mm 1 mps 481 mmHg 68%
09:00 -2°C° 0 mm 1 mps 482 mmHg 67%
10:00 -1°C° 0 mm 1 mps 482 mmHg 65%
11:00 0°C° 0 mm 1 mps 483 mmHg 63%
12:00 0°C° 0.2 mm 1 mps 483 mmHg 61%
13:00 0°C° 0.2 mm 1 mps 483 mmHg 60%
14:00 -2°C° 0.2 mm 2 mps 483 mmHg 59%
15:00 -2°C° 0.2 mm 2 mps 483 mmHg 60%
16:00 -3°C° 0.2 mm 2 mps 483 mmHg 62%
17:00 -3°C° 0.2 mm 2 mps 482 mmHg 64%
18:00 -4°C° 0 mm 2 mps 482 mmHg 69%
19:00 -5°C° 0 mm 2 mps 482 mmHg 74%
20:00 -4°C° 0 mm 1 mps 481 mmHg 78%
21:00 -6°C° 0 mm 1 mps 481 mmHg 77%
22:00 -6°C° 0 mm 1 mps 480 mmHg 75%
23:00 -7°C° 0 mm 1 mps 480 mmHg 74%

Tomorrow, 17 April, Saturday

Time Temperature Precipitation Wind Pressure Humidity
00:00 -7°C° 0 mm 1 mps 480 mmHg 75%
01:00 -8°C° 0 mm 2 mps 480 mmHg 77%
02:00 -8°C° 0 mm 2 mps 479 mmHg 78%
03:00 -8°C° 0 mm 2 mps 479 mmHg 79%
04:00 -8°C° 0 mm 2 mps 479 mmHg 79%
05:00 -9°C° 0 mm 2 mps 479 mmHg 80%
06:00 -8°C° 0 mm 2 mps 480 mmHg 76%
07:00 -6°C° 0 mm 1 mps 481 mmHg 73%
08:00 -4°C° 0 mm 1 mps 481 mmHg 69%
09:00 -3°C° 0.1 mm 1 mps 482 mmHg 64%
10:00 -2°C° 0.1 mm 1 mps 482 mmHg 60%
11:00 -4°C° 0.1 mm 2 mps 482 mmHg 56%
12:00 -3°C° 0.2 mm 2 mps 483 mmHg 57%
13:00 -3°C° 0.2 mm 2 mps 483 mmHg 57%
14:00 -4°C° 0.2 mm 3 mps 483 mmHg 58%
15:00 -3°C° 0.2 mm 2 mps 483 mmHg 63%
16:00 -4°C° 0.2 mm 2 mps 483 mmHg 69%
17:00 -4°C° 0.2 mm 2 mps 482 mmHg 74%
18:00 -5°C° 0 mm 2 mps 482 mmHg 76%
19:00 -4°C° 0 mm 1 mps 482 mmHg 79%
20:00 -6°C° 0 mm 1 mps 482 mmHg 81%
21:00 -6°C° 0 mm 1 mps 481 mmHg 79%
22:00 -6°C° 0 mm 1 mps 481 mmHg 78%
23:00 -6°C° 0 mm 0 mps 481 mmHg 76%

Day after tomorrow, 18 April, Sunday

Time Temperature Precipitation Wind Pressure Humidity
00:00 -6°C° 0 mm 1 mps 480 mmHg 76%
01:00 -6°C° 0 mm 1 mps 480 mmHg 77%
02:00 -6°C° 0 mm 1 mps 480 mmHg 78%
03:00 -7°C° 0 mm 1 mps 480 mmHg 79%
04:00 -7°C° 0 mm 1 mps 480 mmHg 79%
05:00 -7°C° 0 mm 1 mps 479 mmHg 79%
06:00 -6°C° 0 mm 1 mps 480 mmHg 76%
07:00 -4°C° 0 mm 1 mps 481 mmHg 73%
08:00 -4°C° 0 mm 1 mps 481 mmHg 69%
09:00 -3°C° 0.3 mm 1 mps 482 mmHg 71%
10:00 -5°C° 0.3 mm 2 mps 482 mmHg 73%
11:00 -5°C° 0.3 mm 2 mps 482 mmHg 75%
12:00 -5°C° 0.9 mm 2 mps 482 mmHg 78%
13:00 -5°C° 0.9 mm 2 mps 481 mmHg 81%
14:00 -7°C° 0.9 mm 3 mps 481 mmHg 85%
15:00 -6°C° 1 mm 2 mps 481 mmHg 85%
16:00 -6°C° 1 mm 2 mps 481 mmHg 86%
17:00 -7°C° 1 mm 2 mps 481 mmHg 86%
18:00 -8°C° 0.5 mm 2 mps 481 mmHg 86%
19:00 -9°C° 0.5 mm 2 mps 481 mmHg 87%
20:00 -9°C° 0.5 mm 1 mps 480 mmHg 87%
21:00 -9°C° 0.9 mm 1 mps 480 mmHg 87%
22:00 -9°C° 0.9 mm 1 mps 480 mmHg 88%
23:00 -9°C° 0.9 mm 1 mps 480 mmHg 88%

19 April, Monday

Time Temperature Precipitation Wind Pressure Humidity
00:00 -9°C° 0.8 mm 1 mps 480 mmHg 88%
01:00 -9°C° 0.8 mm 1 mps 480 mmHg 88%
02:00 -9°C° 0.8 mm 1 mps 479 mmHg 88%
03:00 -9°C° 0.4 mm 1 mps 479 mmHg 89%
04:00 -9°C° 0.4 mm 1 mps 479 mmHg 89%
05:00 -10°C° 0.4 mm 1 mps 479 mmHg 90%
06:00 -9°C° 1.3 mm 1 mps 479 mmHg 88%
07:00 -9°C° 1.3 mm 1 mps 479 mmHg 87%
08:00 -9°C° 1.3 mm 1 mps 480 mmHg 85%
09:00 -8°C° 0.6 mm 1 mps 480 mmHg 79%
10:00 -7°C° 0.6 mm 1 mps 480 mmHg 74%
11:00 -7°C° 0.6 mm 1 mps 481 mmHg 68%
12:00 -6°C° 0.1 mm 1 mps 481 mmHg 69%
13:00 -6°C° 0.1 mm 1 mps 481 mmHg 71%
14:00 -4°C° 0.1 mm 1 mps 481 mmHg 72%
15:00 -6°C° 0.2 mm 1 mps 481 mmHg 73%
16:00 -6°C° 0.2 mm 1 mps 480 mmHg 74%
17:00 -6°C° 0.2 mm 1 mps 480 mmHg 76%
18:00 -8°C° 0 mm 1 mps 480 mmHg 77%
19:00 -10°C° 0 mm 2 mps 479 mmHg 78%
20:00 -13°C° 0 mm 2 mps 478 mmHg 79%
21:00 -14°C° 0 mm 3 mps 478 mmHg 77%
22:00 -14°C° 0 mm 3 mps 478 mmHg 74%
23:00 -14°C° 0 mm 3 mps 478 mmHg 72%

20 April, Tuesday

Time Temperature Precipitation Wind Pressure Humidity
00:00 -14°C° 0 mm 3 mps 477 mmHg 67%
01:00 -15°C° 0 mm 4 mps 477 mmHg 63%
02:00 -15°C° 0 mm 4 mps 477 mmHg 58%
03:00 -15°C° 0 mm 4 mps 477 mmHg 58%
04:00 -14°C° 0 mm 3 mps 477 mmHg 58%
05:00 -14°C° 0 mm 3 mps 477 mmHg 57%
06:00 -12°C° 0 mm 3 mps 477 mmHg 58%
07:00 -9°C° 0 mm 2 mps 478 mmHg 59%
08:00 -7°C° 0 mm 2 mps 479 mmHg 59%
09:00 -6°C° 0 mm 2 mps 479 mmHg 61%
10:00 -5°C° 0 mm 2 mps 479 mmHg 63%
11:00 -5°C° 0 mm 2 mps 479 mmHg 65%
12:00 -4°C° 0 mm 2 mps 480 mmHg 64%
13:00 -2°C° 0 mm 1 mps 480 mmHg 62%
14:00 -2°C° 0 mm 1 mps 480 mmHg 61%
15:00 -2°C° 0.1 mm 1 mps 479 mmHg 66%
16:00 -5°C° 0.1 mm 2 mps 479 mmHg 70%
17:00 -5°C° 0.1 mm 2 mps 479 mmHg 75%
18:00 -6°C° 0 mm 2 mps 478 mmHg 78%
19:00 -7°C° 0 mm 2 mps 478 mmHg 81%
20:00 -8°C° 0 mm 2 mps 477 mmHg 83%
21:00 -8°C° 0 mm 1 mps 477 mmHg 81%
22:00 -8°C° 0 mm 1 mps 476 mmHg 79%
23:00 -8°C° 0 mm 1 mps 476 mmHg 77%

21 April, Wednesday

Time Temperature Precipitation Wind Pressure Humidity
00:00 -8°C° 0 mm 1 mps 475 mmHg 78%
01:00 -9°C° 0 mm 1 mps 475 mmHg 79%
02:00 -10°C° 0 mm 2 mps 475 mmHg 80%
03:00 -9°C° 0 mm 1 mps 475 mmHg 82%
04:00 -9°C° 0 mm 1 mps 475 mmHg 84%
05:00 -9°C° 0 mm 1 mps 475 mmHg 86%
06:00 -8°C° 0.2 mm 1 mps 475 mmHg 87%
07:00 -8°C° 0.2 mm 1 mps 475 mmHg 89%
08:00 -7°C° 0.2 mm 1 mps 475 mmHg 90%
09:00 -7°C° 0.7 mm 1 mps 476 mmHg 91%
10:00 -7°C° 0.7 mm 1 mps 476 mmHg 92%
11:00 -7°C° 0.7 mm 1 mps 476 mmHg 93%
12:00 -8°C° 0.9 mm 2 mps 476 mmHg 93%
13:00 -8°C° 0.9 mm 2 mps 476 mmHg 94%
14:00 -8°C° 0.9 mm 2 mps 476 mmHg 95%
15:00 -9°C° 1 mm 2 mps 476 mmHg 95%
16:00 -9°C° 1 mm 2 mps 476 mmHg 96%
17:00 -10°C° 1 mm 2 mps 477 mmHg 96%
18:00 -10°C° 0.5 mm 2 mps 477 mmHg 96%
19:00 -10°C° 0.5 mm 1 mps 477 mmHg 96%
20:00 -10°C° 0.5 mm 1 mps 477 mmHg 95%
21:00 -11°C° 0.2 mm 1 mps 477 mmHg 95%
22:00 -11°C° 0.2 mm 1 mps 477 mmHg 95%
23:00 -11°C° 0.2 mm 1 mps 477 mmHg 95%
Show more

We Need Your Consent

Meteoprog and our Service Providers may store and access personal data such as cookies, device identifiers or other similar technologies on your device and process such data to personalise content and ads, as well as provide social media features and to analyse the traffic.

  • Store and/or access information on your device

    Cookies, device identifiers or other information can be stored or accessed on your device for the purposes indicated above.

  • Personalised ads and content, ad and content measurement, audience insights, and products development

    Ads and content can be personalised based on a profile. More data can be added to better personalise ads and content. Ad and content performance can be measured. Insights about the audience who saw the ads and content can be derived. Such data can be used to develop or improve user’s experience, systems and software.

By clicking ‘I Agree’ you will allow the use of indicated cookies, device identifiers, web beacons or other similar technologies. Your settings can be changed in the browser on your device.

For certain purposes, legitimate interests may be relied on, rather than consent. You can read more about this in our Privacy and Cookie Policy.